FW4606 Weather Reports


time (UTC)temp
F
wind
direction
speed
knots
gust
knots
rain 1hr
in
rain 24hr
in
rain mn
in
humidity
%
barometer
mb
20260831220726 92 351 0.0 2.6 0.00 0.00 0.00 40 1011.4
20260831220219 92 108 0.9 5.2 0.00 0.00 0.00 41 1011.3
20260831215714 92 162 0.9 5.2 0.00 0.00 0.00 39 1011.4
20260831215208 92 113 0.0 2.6 0.00 0.00 0.00 42 1011.3
20260831214702 91 134 0.0 2.6 0.00 0.00 0.00 47 1011.3
20260831214156 91 143 0.0 0.9 0.00 0.00 0.00 43 1011.3
20260831213650 92 146 0.0 0.9 0.00 0.00 0.00 43 1011.3
20260831213144 92 146 0.0 0.9 0.00 0.00 0.00 40 1011.2
20260831212638 93 181 0.0 0.9 0.00 0.00 0.00 38 1011.2
20260831212132 92 118 0.0 1.7 0.00 0.00 0.00 40 1011.2
20260831211632 92 94 0.0 1.7 0.00 0.00 0.00 43 1011.2
20260831211129 91 148 0.0 0.9 0.00 0.00 0.00 44 1011.2
20260831210628 92 113 0.0 0.9 0.00 0.00 0.00 43 1011.1
20260831210126 92 7 0.9 2.6 0.00 0.00 0.00 48 1011.1
20260831205625 91 117 0.9 3.5 0.00 0.00 0.00 46 1011.1
20260831205123 91 148 0.9 3.5 0.00 0.00 0.00 42 1011.2
20260831204854 91 92 0.9 3.5 0.00 0.00 0.00 43 1011.3
20260831204124 91 160 0.0 2.6 0.00 0.00 0.00 45 1011.2
20260831203851 92 115 0.0 2.6 0.00 0.00 0.00 44 1011.2
20260831203123 92 345 0.0 0.9 0.00 0.00 0.00 44 1011.2
20260831202620 91 359 0.0 0.9 0.00 0.00 0.00 43 1011.2
20260831202121 92 18 0.0 0.9 0.00 0.00 0.00 43 1011.2
20260831201625 91 94 0.0 2.6 0.00 0.00 0.00 41 1011.1
20260831201619 91 122 0.0 0.9 0.00 0.00 0.00 45 1011.2
20260831200619 91 12 0.0 2.6 0.00 0.00 0.00 44 1011.1
20260831200119 92 109 0.0 1.7 0.00 0.00 0.00 47 1011.1
20260831195852 91 109 0.0 1.7 0.00 0.00 0.00 44 1011.0
20260831195114 92 103 0.9 4.3 0.00 0.00 0.00 48 1010.9
20260831194609 91 141 0.9 4.3 0.00 0.00 0.00 45 1010.9
20260831194103 91 94 0.0 2.6 0.00 0.00 0.00 46 1010.9
20260831193557 91 5 0.0 2.6 0.00 0.00 0.00 46 1010.9
20260831193051 91 3 0.0 3.5 0.00 0.00 0.00 49 1010.9
20260831192544 91 132 0.0 3.5 0.00 0.00 0.00 47 1011.0
20260831192311 91 156 0.0 4.3 0.00 0.00 0.00 48 1011.0
20260831191533 91 92 0.0 4.3 0.00 0.00 0.00 52 1011.1
20260831191027 90 319 0.0 2.6 0.00 0.00 0.00 52 1011.2
20260831190521 90 128 0.0 2.6 0.00 0.00 0.00 52 1011.2
20260831190247 90 342 0.0 2.6 0.00 0.00 0.00 54 1011.1
20260831185740 89 345 0.0 2.6 0.00 0.00 0.00 54 1011.0
20260831185003 89 113 0.9 2.6 0.00 0.00 0.00 55 1011.0
20260831184503 89 77 0.9 2.6 0.00 0.00 0.00 57 1011.0
20260831184236 88 356 0.9 2.6 0.00 0.00 0.00 57 1011.0
20260831183503 88 99 0.0 2.6 0.00 0.00 0.00 58 1010.9
20260831183005 88 132 0.0 1.7 0.00 0.00 0.00 60 1011.0
20260831182504 88 345 0.0 2.6 0.00 0.00 0.00 60 1011.0
20260831182003 87 110 0.0 2.6 0.00 0.00 0.00 62 1011.0
20260831181504 87 44 0.9 4.3 0.00 0.00 0.00 62 1011.0
20260831181003 87 4 0.9 4.3 0.00 0.00 0.00 66 1011.1
20260831180735 86 69 0.9 3.5 0.00 0.00 0.00 64 1011.2
20260831180009 86 113 0.9 2.6 0.00 0.00 0.00 67 1011.3
20260831180003 86 194 0.9 3.5 0.00 0.00 0.00 64 1011.2
20260831175003 85 83 0.9 2.6 0.00 0.00 0.00 67 1011.2
20260831174504 85 117 0.9 2.6 0.00 0.00 0.00 70 1011.3
20260831174003 84 91 0.9 3.5 0.00 0.00 0.00 68 1011.2
20260831173735 84 107 0.9 3.5 0.00 0.00 0.00 72 1011.3
20260831173235 85 124 0.9 2.6 0.00 0.00 0.00 72 1011.3
20260831172458 84 238 0.9 3.5 0.00 0.00 0.00 77 1011.3
20260831171952 83 195 0.9 3.5 0.00 0.00 0.00 76 1011.4
20260831171446 83 230 0.9 2.6 0.00 0.00 0.00 76 1011.4
20260831170940 83 100 0.0 1.7 0.00 0.00 0.00 77 1011.4
20260831170434 83 112 0.0 1.7 0.00 0.00 0.00 80 1011.4
20260831165928 82 122 0.0 1.7 0.00 0.00 0.00 79 1011.4
20260831165422 81 33 0.0 1.7 0.00 0.00 0.00 80 1011.4
20260831164916 81 132 0.0 1.7 0.00 0.00 0.00 82 1011.4
20260831164410 80 141 0.0 1.7 0.00 0.00 0.00 84 1011.5
20260831163903 80 77 0.0 0.9 0.00 0.00 0.00 84 1011.4
20260831163358 79 105 0.0 0.9 0.00 0.00 0.00 84 1011.4
20260831162852 79 351 0.0 0.9 0.00 0.00 0.00 84 1011.4
20260831162347 79 307 0.0 0.9 0.00 0.00 0.00 84 1011.4
20260831161840 79 81 0.0 0.9 0.00 0.00 0.00 84 1011.3
20260831161334 79 138 0.0 1.7 0.00 0.00 0.00 85 1011.4
20260831160827 79 44 0.0 1.7 0.00 0.00 0.00 85 1011.3
20260831160322 80 0 0.0 1.7 0.00 0.00 0.00 85 1011.4
20260831155816 80 198 0.0 0.9 0.00 0.00 0.00 84 1011.3
20260831155310 80 198 0.0 0.9 0.00 0.00 0.00 85 1011.2
20260831154803 80 67 0.0 1.7 0.00 0.00 0.00 85 1011.1
20260831154259 80 129 0.0 1.7 0.00 0.00 0.00 88 1011.1
20260831154254 79 343 0.0 2.6 0.00 0.00 0.00 87 1010.8
20260831153245 79 97 0.0 2.6 0.00 0.00 0.00 87 1010.7
20260831152740 79 119 0.9 2.6 0.00 0.00 0.00 87 1010.7
20260831152234 79 102 0.0 2.6 0.00 0.00 0.00 88 1010.6
20260831151728 79 103 0.0 1.7 0.00 0.00 0.00 88 1010.6
20260831151221 79 89 0.0 2.6 0.00 0.00 0.00 88 1010.5
20260831150716 79 27 0.0 2.6 0.00 0.00 0.00 88 1010.5
20260831150209 79 109 0.0 0.9 0.00 0.00 0.00 88 1010.5
20260831145704 79 127 0.0 1.7 0.00 0.00 0.00 88 1010.4
20260831145158 78 162 0.0 1.7 0.00 0.00 0.00 88 1010.2
20260831144651 78 149 0.9 2.6 0.00 0.00 0.00 90 1010.2
20260831144146 78 143 0.9 2.6 0.00 0.00 0.00 89 1010.0
20260831143640 77 149 0.9 3.5 0.00 0.00 0.00 90 1010.0
20260831143405 77 201 0.9 3.5 0.00 0.00 0.00 91 1010.0
20260831142628 77 84 0.0 1.7 0.00 0.00 0.00 91 1009.9
20260831142121 77 149 0.0 2.6 0.00 0.00 0.00 91 1009.9
20260831141616 76 89 0.9 3.5 0.00 0.00 0.00 91 1009.8
20260831141109 77 120 0.9 3.5 0.00 0.00 0.00 91 1009.7
20260831140604 77 110 0.9 2.6 0.00 0.00 0.00 92 1009.6
20260831140328 76 127 0.9 2.6 0.00 0.00 0.00 92 1009.6
20260831135552 76 124 1.7 3.5 0.00 0.00 0.00 93 1009.5
20260831135046 75 127 1.7 3.5 0.00 0.00 0.00 93 1009.5
20260831134811 75 148 0.9 3.5 0.00 0.00 0.00 94 1009.3
20260831134034 74 225 0.9 3.5 0.00 0.00 0.00 95 1009.2
20260831133528 74 131 0.9 2.6 0.00 0.00 0.00 96 1009.1
20260831133022 73 158 0.0 1.7 0.00 0.00 0.00 97 1009.1
20260831132516 73 136 0.0 1.7 0.00 0.00 0.00 97 1009.2
20260831132010 73 160 0.0 1.7 0.00 0.00 0.00 97 1009.1
20260831131504 72 226 0.0 1.7 0.00 0.00 0.00 97 1009.1
20260831130958 72 218 0.0 0.9 0.00 0.00 0.00 97 1009.1
20260831130452 71 207 0.0 0.9 0.00 0.00 0.00 97 1009.1
20260831125945 71 214 0.0 0.9 0.00 0.00 0.00 97 1009.1
20260831125440 71 149 0.0 0.0 0.00 0.00 0.00 97 1009.0
20260831124933 70 149 0.0 0.0 0.00 0.00 0.00 97 1008.9
20260831124659 70 148 0.0 0.0 0.00 0.00 0.00 97 1008.9
20260831123922 70 150 0.0 0.0 0.00 0.00 0.00 97 1008.9
20260831123416 70 150 0.0 0.0 0.00 0.00 0.00 97 1008.8
20260831122910 70 150 0.0 0.0 0.00 0.00 0.00 97 1008.8
20260831122404 70 149 0.0 0.0 0.00 0.00 0.00 97 1008.6
20260831121858 70 148 0.0 0.0 0.00 0.00 0.00 97 1008.5
20260831121352 70 148 0.0 0.0 0.00 0.00 0.00 97 1008.3
20260831120846 69 148 0.0 0.0 0.00 0.00 0.00 97 1008.1
20260831120610 69 150 0.0 0.0 0.00 0.00 0.00 97 1008.2
20260831115834 69 150 0.0 0.0 0.00 0.00 0.00 96 1008.1
20260831115329 69 150 0.0 0.0 0.00 0.00 0.00 96 1008.1
20260831114822 69 149 0.0 0.0 0.00 0.00 0.00 96 1008.0
20260831114547 69 150 0.0 0.0 0.00 0.00 0.00 96 1008.2
20260831113810 69 149 0.0 0.0 0.00 0.00 0.00 96 1008.1
20260831113304 69 150 0.0 0.0 0.00 0.00 0.00 96 1008.1
20260831112757 69 149 0.0 0.0 0.00 0.00 0.00 96 1007.9
20260831112252 69 149 0.0 0.0 0.00 0.00 0.00 96 1007.9
20260831111746 70 149 0.0 0.0 0.00 0.00 0.00 96 1007.9
20260831111240 70 149 0.0 0.0 0.00 0.00 0.00 96 1007.8
20260831110734 70 149 0.0 0.0 0.00 0.00 0.00 96 1007.8
20260831110228 70 150 0.0 0.0 0.00 0.00 0.00 96 1007.7
20260831105722 70 150 0.0 0.0 0.00 0.00 0.00 95 1007.8
20260831105215 70 149 0.0 0.0 0.00 0.00 0.00 95 1007.8
20260831104710 70 150 0.0 0.0 0.00 0.00 0.00 95 1007.9
20260831104204 71 149 0.0 0.0 0.00 0.00 0.00 96 1008.0
20260831103658 71 150 0.0 0.0 0.00 0.00 0.00 95 1007.8
20260831103152 71 148 0.0 0.0 0.00 0.00 0.00 95 1007.7
20260831102646 71 149 0.0 0.0 0.00 0.00 0.00 95 1007.7
20260831102140 71 149 0.0 0.0 0.00 0.00 0.00 95 1007.7
20260831101634 71 149 0.0 0.0 0.00 0.00 0.00 95 1007.7
20260831101128 71 150 0.0 0.0 0.00 0.00 0.00 95 1007.7
20260831100622 71 157 0.0 0.0 0.00 0.00 0.00 95 1007.6
20260831100116 71 156 0.0 0.0 0.00 0.00 0.00 95 1007.6
20260831095609 71 157 0.0 0.0 0.00 0.00 0.00 95 1007.5
20260831095103 71 157 0.0 0.0 0.00 0.00 0.00 95 1007.4
20260831094558 71 157 0.0 0.0 0.00 0.00 0.00 95 1007.3
20260831094052 71 157 0.0 0.0 0.00 0.00 0.00 95 1007.4
20260831093546 71 157 0.0 0.0 0.00 0.00 0.00 94 1007.3
20260831093040 71 157 0.0 0.0 0.00 0.00 0.00 94 1007.4
20260831092533 71 156 0.0 0.0 0.00 0.00 0.00 94 1007.4
20260831092028 71 156 0.0 0.0 0.00 0.00 0.00 94 1007.5
20260831091522 71 157 0.0 0.0 0.00 0.00 0.00 94 1007.5
20260831091242 71 157 0.0 0.0 0.00 0.00 0.00 94 1007.7
20260831091116 71 157 0.0 0.0 0.00 0.00 0.00 94 1007.7
20260831090004 71 157 0.0 0.0 0.00 0.00 0.00 94 1007.8
20260831085458 71 157 0.0 0.0 0.00 0.00 0.00 94 1007.6
20260831084952 71 152 0.0 0.0 0.00 0.00 0.00 93 1007.5
20260831084452 72 153 0.0 0.0 0.00 0.00 0.00 93 1007.4
20260831083949 72 152 0.0 0.0 0.00 0.00 0.00 93 1007.3
20260831083449 72 152 0.0 0.0 0.00 0.00 0.00 93 1007.4
20260831082953 72 151 0.0 0.0 0.00 0.00 0.00 93 1007.4
20260831082448 72 152 0.0 0.0 0.00 0.00 0.00 93 1007.4
20260831081946 72 152 0.0 0.0 0.00 0.00 0.00 93 1007.3
20260831081443 72 152 0.0 0.0 0.00 0.00 0.00 92 1007.3
20260831081212 72 152 0.0 0.0 0.00 0.00 0.00 92 1007.3
20260831080440 72 152 0.0 0.0 0.00 0.00 0.00 92 1007.2
20260831080209 73 151 0.0 1.7 0.00 0.00 0.00 92 1007.2
20260831075440 73 152 0.0 1.7 0.00 0.00 0.00 92 1007.1
20260831074938 73 156 0.0 0.9 0.00 0.00 0.00 92 1007.2
20260831074710 73 162 0.0 0.9 0.00 0.00 0.00 92 1007.3
20260831073937 73 201 0.0 0.9 0.00 0.00 0.00 92 1007.3
20260831073436 73 169 0.0 0.9 0.00 0.00 0.00 92 1007.2
20260831072934 73 214 0.0 0.9 0.00 0.00 0.00 92 1007.3
20260831072434 73 259 0.0 0.9 0.00 0.00 0.00 91 1007.4
20260831071930 73 259 0.0 0.9 0.00 0.00 0.00 91 1007.4
20260831071429 73 260 0.0 0.0 0.00 0.00 0.00 91 1007.5
20260831071206 73 259 0.0 0.0 0.00 0.00 0.00 91 1007.6
20260831070426 73 259 0.0 0.0 0.00 0.00 0.00 91 1007.6
20260831070152 73 226 0.0 0.0 0.00 0.00 0.00 91 1007.6
20260831065645 73 226 0.0 0.9 0.00 0.00 0.00 91 1007.5
20260831064908 73 226 0.0 0.9 0.00 0.00 0.00 91 1007.6
20260831064403 73 151 0.0 0.9 0.00 0.00 0.00 91 1007.7
20260831063856 73 246 0.0 0.0 0.00 0.00 0.00 91 1007.8
20260831063351 73 266 0.0 0.0 0.00 0.00 0.00 90 1007.8
20260831062844 73 266 0.0 0.0 0.00 0.00 0.00 90 1007.9
20260831062346 73 277 0.0 0.9 0.00 0.00 0.00 90 1008.0
20260831062342 73 266 0.0 0.9 0.00 0.00 0.00 90 1008.0
20260831061338 74 248 0.0 0.0 0.00 0.00 0.00 90 1008.0
20260831061111 74 249 0.0 0.9 0.00 0.00 0.00 90 1008.1
20260831060607 74 249 0.0 0.9 0.00 0.00 0.00 90 1008.0
20260831055837 74 254 0.0 0.9 0.00 0.00 0.00 89 1008.0
20260831055336 74 254 0.0 1.7 0.00 0.00 0.00 89 1007.9
20260831054838 74 169 0.0 1.7 0.00 0.00 0.00 89 1008.0
20260831054608 74 131 0.0 0.9 0.00 0.00 0.00 89 1008.0
20260831054105 74 227 0.0 1.7 0.00 0.00 0.00 89 1008.0
20260831053336 74 163 0.0 1.7 0.00 0.00 0.00 89 1008.1
20260831052834 74 200 0.0 0.9 0.00 0.00 0.00 89 1008.2
20260831052333 74 249 0.0 1.7 0.00 0.00 0.00 89 1008.3
20260831052103 74 295 0.0 1.7 0.00 0.00 0.00 88 1008.4
20260831051329 75 342 0.0 1.7 0.00 0.00 0.00 88 1008.4
20260831050830 75 225 0.0 1.7 0.00 0.00 0.00 88 1008.4
20260831050330 75 153 0.0 1.7 0.00 0.00 0.00 88 1008.6
20260831045831 75 179 0.0 1.7 0.00 0.00 0.00 88 1008.7
20260831045329 75 155 0.0 1.7 0.00 0.00 0.00 87 1008.7
20260831045057 75 113 0.0 1.7 0.00 0.00 0.00 87 1008.8
20260831044324 75 152 0.0 1.7 0.00 0.00 0.00 87 1008.8
20260831043825 76 283 0.0 2.6 0.00 0.00 0.00 86 1008.9
20260831043323 76 107 0.0 2.6 0.00 0.00 0.00 86 1009.0
20260831043057 76 160 0.0 0.9 0.00 0.00 0.00 86 1009.1
20260831042322 76 75 0.0 0.9 0.00 0.00 0.00 85 1008.9
20260831042050 76 276 0.0 0.9 0.00 0.00 0.00 85 1008.9
20260831041944 76 242 0.0 2.6 0.00 0.00 0.00 85 1008.9
20260831040820 76 242 0.9 5.2 0.00 0.00 0.00 84 1008.9
20260831040312 76 174 0.0 5.2 0.00 0.00 0.00 84 1008.8
20260831035806 76 212 0.9 6.1 0.00 0.00 0.00 84 1008.8
20260831035306 76 252 0.0 6.1 0.00 0.00 0.00 84 1008.8
20260831034803 76 134 0.0 2.6 0.00 0.00 0.00 83 1008.7
20260831034301 77 113 0.0 2.6 0.00 0.00 0.00 83 1008.7
20260831033803 77 240 0.0 2.6 0.00 0.00 0.00 82 1008.8
20260831033300 77 249 0.0 5.2 0.00 0.00 0.00 82 1008.8
20260831032759 77 179 0.9 5.2 0.00 0.00 0.00 82 1008.8
20260831032259 77 236 0.9 4.3 0.00 0.00 0.00 81 1008.8
20260831031800 78 152 0.9 4.3 0.00 0.00 0.00 81 1008.8
20260831031533 78 190 0.0 2.6 0.00 0.00 0.00 81 1008.7
20260831030759 78 71 0.9 4.3 0.00 0.00 0.00 80 1008.6
20260831030259 78 265 0.9 4.3 0.00 0.00 0.00 80 1008.6
20260831025759 78 91 0.9 6.1 0.00 0.00 0.00 79 1008.5
20260831025259 78 112 0.9 7.0 0.00 0.00 0.00 79 1008.5
20260831024801 78 248 0.9 7.0 0.00 0.00 0.00 78 1008.4
20260831024255 79 249 0.9 4.3 0.00 0.00 0.00 78 1008.5
20260831023755 79 309 0.9 3.5 0.00 0.00 0.00 77 1008.5
20260831023259 79 96 1.7 4.3 0.00 0.00 0.00 77 1008.5
20260831022756 79 212 1.7 4.3 0.00 0.00 0.00 76 1008.5
20260831022253 80 159 1.7 4.3 0.00 0.00 0.00 75 1008.5
20260831021753 80 205 1.7 6.1 0.00 0.00 0.00 75 1008.5
20260831021252 80 242 1.7 7.8 0.00 0.00 0.00 74 1008.4
20260831020750 80 249 1.7 11.3 0.00 0.00 0.00 74 1008.5
20260831020251 80 170 0.9 11.3 0.00 0.00 0.00 74 1008.4
20260831015749 80 169 0.9 5.2 0.00 0.00 0.00 75 1008.3
20260831015522 79 127 0.0 3.5 0.00 0.00 0.00 78 1008.2
20260831015022 79 174 0.0 1.7 0.00 0.00 0.00 83 1008.3
20260831014248 79 221 0.0 0.9 0.00 0.00 0.00 85 1008.2
20260831014020 79 208 0.0 0.9 0.00 0.00 0.00 85 1008.2
20260831013245 79 141 0.0 0.9 0.00 0.00 0.00 85 1008.2
20260831012741 79 348 0.0 0.0 0.00 0.00 0.00 85 1008.3
20260831012241 79 350 0.0 1.7 0.00 0.00 0.00 85 1008.3
20260831012008 80 333 0.0 1.7 0.00 0.00 0.00 84 1008.1
20260831011238 80 25 0.0 0.9 0.00 0.00 0.00 84 1008.0
20260831010732 80 355 0.0 0.0 0.00 0.00 0.00 84 1008.0
20260831010226 80 66 0.0 0.0 0.00 0.00 0.00 83 1008.0
20260831005720 80 66 0.0 0.0 0.00 0.00 0.00 83 1008.0
20260831005214 80 68 0.0 0.9 0.00 0.00 0.00 83 1007.9
20260831004708 81 68 0.0 0.9 0.00 0.00 0.00 82 1007.9
20260831004202 81 317 0.0 0.9 0.00 0.00 0.00 82 1007.8
20260831003656 81 34 0.0 0.9 0.00 0.00 0.00 82 1007.9
20260831003150 81 97 0.0 0.9 0.00 0.00 0.00 81 1008.0
20260831002644 81 359 0.0 0.9 0.00 0.00 0.00 81 1008.1
20260831002138 82 358 0.0 0.0 0.00 0.00 0.00 81 1008.1
20260831002133 82 358 0.0 4.3 0.00 0.00 0.00 80 1008.0
20260831001356 82 352 0.0 4.3 0.00 0.00 0.00 80 1008.1
20260831000619 82 84 0.0 1.7 0.00 0.00 0.00 80 1008.0
20260831000111 82 0 0.0 0.9 0.00 0.00 0.00 80 1008.0
20260830235606 83 94 0.0 0.9 0.00 0.00 0.00 79 1007.9
20260830235601 83 355 0.0 0.9 0.00 0.00 0.00 78 1007.9
20260830234554 83 75 0.0 1.7 0.00 0.00 0.00 78 1008.0
20260830234047 83 91 0.0 1.7 0.00 0.00 0.00 77 1008.0
20260830233541 83 85 0.0 1.7 0.00 0.00 0.00 77 1008.0
20260830233036 84 8 0.0 0.9 0.00 0.00 0.00 76 1008.1
20260830232530 84 354 0.0 2.6 0.00 0.00 0.00 76 1008.1
20260830232023 84 25 0.0 2.6 0.00 0.00 0.00 75 1008.0
20260830231518 85 15 0.0 3.5 0.00 0.00 0.00 74 1007.9
20260830231011 85 95 0.0 3.5 0.00 0.00 0.00 73 1008.0
20260830230506 85 71 0.0 3.5 0.00 0.00 0.00 73 1008.2
20260830230000 85 322 0.0 3.5 0.00 0.00 0.00 73 1008.1
20260830225454 86 359 0.0 2.6 0.00 0.00 0.00 72 1008.0
20260830224948 86 98 0.0 2.6 0.00 0.00 0.00 72 1008.0
20260830224441 87 110 0.9 5.2 0.00 0.00 0.00 71 1008.1
20260830224208 87 97 0.0 3.5 0.00 0.00 0.00 70 1008.1
20260830223700 87 336 0.0 2.6 0.00 0.00 0.00 73 1008.1
20260830223155 86 75 0.0 5.2 0.00 0.00 0.00 73 1008.1
20260830222650 85 322 0.9 5.2 0.00 0.00 0.00 72 1008.0
20260830221912 85 340 0.9 6.1 0.00 0.00 0.00 73 1007.9
20260830221406 85 345 0.9 6.1 0.00 0.00 0.00 73 1008.1